TimeMST,TemperatureF,Dew PointF,Humidity,Sea Level PressureIn,VisibilityMPH,Wind Direction,Wind SpeedMPH,Gust SpeedMPH,PrecipitationIn,Events,Conditions,WindDirDegrees,DateUTC
12:56 AM,23.0,19.9,88,30.13,10.0,WNW,5.8,-,N/A,,Overcast,290,2013-02-18 07:56:00
1:56 AM,23.0,19.0,85,30.14,10.0,West,6.9,-,N/A,,Overcast,260,2013-02-18 08:56:00
2:56 AM,21.9,17.1,82,30.14,10.0,North,-9999.0,-,N/A,,Overcast,0,2013-02-18 09:56:00
3:56 AM,23.0,17.1,78,30.14,10.0,WSW,5.8,-,N/A,,Overcast,250,2013-02-18 10:56:00
4:56 AM,21.9,17.1,82,30.14,10.0,WSW,4.6,-,N/A,,Overcast,240,2013-02-18 11:56:00
5:56 AM,19.9,15.1,81,30.14,10.0,Calm,Calm,-,N/A,,Overcast,0,2013-02-18 12:56:00
6:56 AM,19.9,16.0,85,30.15,10.0,ESE,4.6,-,N/A,,Overcast,120,2013-02-18 13:56:00
7:56 AM,19.0,16.0,88,30.15,10.0,SE,4.6,-,N/A,,Overcast,130,2013-02-18 14:56:00
8:56 AM,19.9,16.0,85,30.14,10.0,SE,5.8,-,N/A,,Mostly Cloudy,140,2013-02-18 15:56:00
9:56 AM,21.9,18.0,85,30.13,10.0,SE,6.9,-,N/A,,Partly Cloudy,140,2013-02-18 16:56:00
10:56 AM,23.0,18.0,81,30.12,10.0,SE,9.2,-,N/A,,Clear,140,2013-02-18 17:56:00
11:56 AM,26.1,19.9,78,30.10,10.0,SSE,10.4,-,N/A,,Clear,160,2013-02-18 18:56:00
12:56 PM,28.0,21.0,75,30.08,10.0,SE,11.5,-,N/A,,Clear,140,2013-02-18 19:56:00
1:56 PM,30.9,21.9,69,30.04,10.0,SSE,15.0,-,N/A,,Clear,150,2013-02-18 20:56:00
2:56 PM,30.0,21.9,72,30.03,10.0,SE,11.5,-,N/A,,Clear,140,2013-02-18 21:56:00
4:56 PM,28.9,19.9,69,29.99,10.0,SSE,13.8,-,N/A,,Clear,150,2013-02-18 23:56:00
5:56 PM,25.0,18.0,75,30.00,10.0,SSE,8.1,-,N/A,,Clear,150,2013-02-19 00:56:00
7:56 PM,21.9,19.0,89,30.00,10.0,SE,3.5,-,N/A,,Clear,130,2013-02-19 02:56:00
8:56 PM,21.9,18.0,85,29.98,10.0,SE,8.1,-,N/A,,Clear,130,2013-02-19 03:56:00
9:56 PM,21.0,17.1,85,29.97,10.0,ESE,8.1,-,N/A,,Clear,110,2013-02-19 04:56:00
10:56 PM,21.0,17.1,85,29.96,10.0,ESE,9.2,-,N/A,,Scattered Clouds,110,2013-02-19 05:56:00
11:56 PM,21.0,17.1,85,29.94,10.0,ESE,12.7,-,N/A,,Clear,120,2013-02-19 06:56:00